TimeCDT,TemperatureF,Dew PointF,Humidity,Sea Level PressureIn,VisibilityMPH,Wind Direction,Wind SpeedMPH,Gust SpeedMPH,PrecipitationIn,Events,Conditions,WindDirDegrees,DateUTC
12:13 AM,60.8,41.0,48,29.72,10.0,West,8.1,-,N/A,,Clear,260,2012-10-03 05:13:00
12:33 AM,59.0,41.0,51,29.72,10.0,WSW,6.9,-,N/A,,Clear,240,2012-10-03 05:33:00
12:54 AM,57.2,41.0,55,29.72,10.0,WSW,5.8,-,N/A,,Clear,240,2012-10-03 05:54:00
1:13 AM,55.4,42.8,63,29.73,10.0,SW,5.8,-,N/A,,Clear,230,2012-10-03 06:13:00
1:33 AM,55.4,42.8,63,29.72,10.0,SW,5.8,-,N/A,,Clear,220,2012-10-03 06:33:00
1:54 AM,55.4,42.8,63,29.73,10.0,WSW,3.5,-,N/A,,Clear,240,2012-10-03 06:54:00
2:12 AM,55.4,41.0,58,29.74,10.0,WSW,6.9,-,N/A,,Clear,240,2012-10-03 07:12:00
2:21 AM,55.4,41.0,58,29.74,10.0,WSW,6.9,-,N/A,,Clear,250,2012-10-03 07:21:00
2:41 AM,53.6,42.8,67,29.75,10.0,SSW,8.1,-,N/A,,Clear,210,2012-10-03 07:41:00
3:01 AM,53.6,42.8,67,29.75,10.0,SW,8.1,-,N/A,,Clear,220,2012-10-03 08:01:00
3:21 AM,51.8,42.8,71,29.75,10.0,SW,5.8,-,N/A,,Clear,220,2012-10-03 08:21:00
3:41 AM,51.8,42.8,71,29.76,10.0,WSW,5.8,-,N/A,,Clear,240,2012-10-03 08:41:00
3:46 AM,51.8,42.8,71,29.76,10.0,WSW,8.1,-,N/A,,Clear,240,2012-10-03 08:46:00
4:01 AM,51.8,42.8,71,29.77,10.0,WSW,10.4,-,N/A,,Clear,250,2012-10-03 09:01:00
4:35 AM,51.8,39.2,62,29.79,10.0,West,10.4,-,N/A,,Clear,270,2012-10-03 09:35:00
4:54 AM,51.8,39.2,62,29.80,10.0,West,11.5,-,N/A,,Clear,280,2012-10-03 09:54:00
5:13 AM,48.2,39.2,71,29.81,10.0,WNW,12.7,-,N/A,,Clear,290,2012-10-03 10:13:00
5:34 AM,48.2,41.0,76,29.82,10.0,WNW,15.0,-,N/A,,Clear,300,2012-10-03 10:34:00
5:54 AM,48.2,39.2,71,29.83,10.0,NW,16.1,23.0,N/A,,Clear,310,2012-10-03 10:54:00
6:13 AM,46.4,39.2,76,29.84,10.0,NW,17.3,21.9,N/A,,Clear,310,2012-10-03 11:13:00
6:34 AM,46.4,39.2,76,29.85,10.0,NW,15.0,-,N/A,,Clear,310,2012-10-03 11:34:00
6:53 AM,46.4,39.2,76,29.86,10.0,NW,12.7,-,N/A,,Clear,310,2012-10-03 11:53:00
7:13 AM,46.4,39.2,76,29.86,10.0,NW,12.7,-,N/A,,Clear,310,2012-10-03 12:13:00
7:33 AM,46.4,39.2,76,29.87,10.0,NW,17.3,-,N/A,,Clear,310,2012-10-03 12:33:00
7:53 AM,46.4,39.2,76,29.88,10.0,NW,13.8,-,N/A,,Clear,310,2012-10-03 12:53:00
8:14 AM,46.4,39.2,76,29.88,10.0,NW,15.0,-,N/A,,Clear,320,2012-10-03 13:14:00
8:33 AM,46.4,39.2,76,29.88,10.0,NW,15.0,-,N/A,,Clear,320,2012-10-03 13:33:00
8:53 AM,44.6,39.2,81,29.89,10.0,NW,15.0,-,N/A,,Clear,320,2012-10-03 13:53:00
9:14 AM,44.6,39.2,81,29.89,10.0,NW,15.0,-,N/A,,Clear,320,2012-10-03 14:14:00
9:33 AM,46.4,39.2,76,29.89,10.0,NNW,15.0,-,N/A,,Clear,330,2012-10-03 14:33:00
9:53 AM,46.4,39.2,76,29.91,10.0,NNW,13.8,-,N/A,,Clear,330,2012-10-03 14:53:00
10:13 AM,46.4,41.0,81,29.91,10.0,NNW,12.7,-,N/A,,Clear,340,2012-10-03 15:13:00
10:33 AM,46.4,41.0,81,29.92,10.0,NW,8.1,-,N/A,,Clear,320,2012-10-03 15:33:00
10:54 AM,48.2,41.0,76,29.92,10.0,NNW,9.2,-,N/A,,Clear,330,2012-10-03 15:54:00
11:13 AM,50.0,41.0,71,29.92,10.0,North,9.2,-,N/A,,Clear,350,2012-10-03 16:13:00
11:33 AM,50.0,41.0,71,29.94,10.0,NW,10.4,-,N/A,,Clear,320,2012-10-03 16:33:00
11:54 AM,50.0,42.8,76,29.95,10.0,NNW,12.7,-,N/A,,Clear,330,2012-10-03 16:54:00
12:13 PM,51.8,41.0,67,29.94,10.0,NNW,12.7,-,N/A,,Scattered Clouds,340,2012-10-03 17:13:00
12:33 PM,51.8,42.8,71,29.94,10.0,NNW,12.7,-,N/A,,Mostly Cloudy,340,2012-10-03 17:33:00
12:53 PM,51.8,41.0,67,29.94,10.0,North,11.5,-,N/A,,Overcast,360,2012-10-03 17:53:00
1:13 PM,51.8,41.0,67,29.94,10.0,North,11.5,-,N/A,,Overcast,10,2012-10-03 18:13:00
1:34 PM,51.8,41.0,67,29.94,10.0,North,10.4,-,N/A,,Overcast,360,2012-10-03 18:34:00
1:53 PM,51.8,41.0,67,29.95,10.0,NNW,11.5,-,N/A,,Overcast,340,2012-10-03 18:53:00
2:13 PM,51.8,42.8,71,29.96,10.0,NNW,15.0,-,N/A,,Overcast,330,2012-10-03 19:13:00
2:34 PM,51.8,42.8,71,29.98,10.0,NW,15.0,-,N/A,,Overcast,320,2012-10-03 19:34:00
2:53 PM,51.8,42.8,71,29.99,10.0,WNW,13.8,-,N/A,,Overcast,300,2012-10-03 19:53:00
3:13 PM,51.8,41.0,67,29.99,10.0,NW,11.5,-,N/A,,Overcast,320,2012-10-03 20:13:00
3:34 PM,51.8,39.2,62,30.00,10.0,NW,8.1,-,N/A,,Overcast,310,2012-10-03 20:34:00
3:53 PM,51.8,42.8,71,30.00,10.0,NW,15.0,-,N/A,,Overcast,320,2012-10-03 20:53:00
4:13 PM,51.8,42.8,71,29.96,10.0,North,21.9,-,N/A,Rain,Light Rain,350,2012-10-03 21:13:00
4:34 PM,50.0,42.8,76,29.96,10.0,North,20.7,26.5,N/A,Rain,Light Rain,350,2012-10-03 21:34:00
4:53 PM,48.2,42.8,82,29.99,10.0,NNW,12.7,-,N/A,Rain,Light Rain,340,2012-10-03 21:53:00
5:13 PM,48.2,42.8,82,30.00,10.0,NNW,12.7,-,N/A,Rain,Light Rain,340,2012-10-03 22:13:00
5:34 PM,48.2,42.8,82,30.01,10.0,NNW,13.8,-,N/A,Rain,Light Rain,340,2012-10-03 22:34:00
5:53 PM,48.2,42.8,82,30.01,10.0,NNW,17.3,-,N/A,Rain,Light Rain,340,2012-10-03 22:53:00
6:13 PM,46.4,42.8,87,30.01,10.0,North,21.9,-,N/A,,Light Drizzle,350,2012-10-03 23:13:00
6:34 PM,46.4,42.8,87,30.03,10.0,NNW,19.6,-,N/A,,Light Drizzle,340,2012-10-03 23:34:00
6:53 PM,46.4,41.0,81,30.03,10.0,North,18.4,-,0.01,Rain,Light Rain,350,2012-10-03 23:53:00
7:13 PM,46.4,41.0,81,30.03,10.0,North,20.7,25.3,N/A,Rain,Light Rain,360,2012-10-04 00:13:00
7:34 PM,46.4,42.8,87,30.05,10.0,North,18.4,26.5,N/A,Rain,Light Rain,350,2012-10-04 00:34:00
7:53 PM,44.6,41.0,87,30.05,10.0,North,20.7,25.3,N/A,Rain,Light Rain,10,2012-10-04 00:53:00
8:13 PM,44.6,41.0,87,30.06,10.0,North,20.7,27.6,N/A,Rain,Light Rain,360,2012-10-04 01:13:00
8:34 PM,44.6,39.2,81,30.06,10.0,North,25.3,29.9,0.01,Rain,Light Rain,10,2012-10-04 01:34:00
8:53 PM,44.6,39.2,81,30.07,10.0,North,23.0,29.9,0.01,Rain,Rain,360,2012-10-04 01:53:00
9:13 PM,44.6,39.2,81,30.07,10.0,North,26.5,32.2,N/A,Rain,Light Rain,350,2012-10-04 02:13:00
9:34 PM,44.6,39.2,81,30.08,10.0,North,24.2,32.2,N/A,Rain,Light Rain,360,2012-10-04 02:34:00
9:53 PM,44.6,39.2,81,30.07,10.0,North,20.7,28.8,N/A,,Light Drizzle,360,2012-10-04 02:53:00
10:13 PM,44.6,39.2,81,30.07,10.0,North,21.9,29.9,N/A,,Light Drizzle,10,2012-10-04 03:13:00
10:34 PM,44.6,39.2,81,30.05,10.0,North,26.5,31.1,N/A,Rain,Light Rain,10,2012-10-04 03:34:00
10:53 PM,42.8,39.2,87,30.06,10.0,North,24.2,32.2,0.01,Rain,Light Rain,10,2012-10-04 03:53:00
11:13 PM,42.8,39.2,87,30.05,10.0,North,24.2,28.8,N/A,Rain,Light Rain,10,2012-10-04 04:13:00
11:33 PM,42.8,39.2,87,30.05,10.0,NNE,20.7,25.3,N/A,,Overcast,20,2012-10-04 04:33:00
11:54 PM,42.8,39.2,87,30.06,10.0,NNE,20.7,28.8,N/A,,Overcast,20,2012-10-04 04:54:00